Weather History for Jacksonville NAS, FL

Change the Weather History Date:

Tuesday, October 11, 2011

  Actual Average Record
Temperature  
Mean Temperature 75 °F -  
Max Temperature 88 °F 79 °F 88 °F (2002)
Min Temperature 66 °F 65 °F 57 °F (2000)
Cooling Degree Days 10    
Growing Degree Days 25 (Base 50)    
Moisture  
Dew Point 69 °F    
Average Humidity 82    
Maximum Humidity 100    
Minimum Humidity 55    
Precipitation  
Precipitation 0.00 in - - ()
Sea Level Pressure  
Sea Level Pressure 29.79 in    
Wind  
Wind Speed 3 mph (South)    
Max Wind Speed 12 mph    
Max Gust Speed -    
Visibility 10 miles    
Events      
Averages and records for this station are not official NWS values.
T = Trace of Precipitation, MM = Missing Value Source: NWS Daily Summary

Daily Weather History Graph

Daily Weather History Graph

Search for Another Location

Airport:

Trip Planner

Search our weather history database for the weather conditions in past years. The results will help you decide how hot, cold, wet, or windy it might be!

Date:

Astronomy

Oct. 11, 2011 Rise Set
Actual Time 7:26 AM EDT 7:00 PM EDT
Civil Twilight 7:01 AM EDT 7:24 PM EDT
Nautical Twilight 6:34 AM EDT 7:52 PM EDT
Astronomical Twilight 6:06 AM EDT 8:20 PM EDT
Moon 6:35 PM EDT (10/11) 7:00 AM EDT (10/11)
Length of Visible Light 12h 22m
Length of Day
11h 34m
Full, 100% of the Moon is Illuminated
Oct 11
Full
Oct 11
Full
Oct 19
Last Quarter
Oct 26
New
Nov 2
First Quarter

Hourly Weather History & Observations

Time (EDT) Temp. Heat Index Dew Point Humidity Pressure Visibility Wind Dir Wind Speed Gust Speed Precip Events Conditions
12:53 AM 70.0 °F - 70.0 °F 100% 29.79 in 10.0 mi Calm Calm - N/A   Mostly Cloudy
1:53 AM 69.1 °F - 69.1 °F 100% 29.78 in 10.0 mi SE 3.5 mph - N/A   Scattered Clouds
2:53 AM 68.0 °F - 68.0 °F 100% 29.76 in 10.0 mi Calm Calm - N/A   Scattered Clouds
3:12 AM 66.2 °F - 66.2 °F 100% 29.78 in 10.0 mi Calm Calm - N/A   Scattered Clouds
3:53 AM 66.9 °F - 66.9 °F 100% 29.76 in 10.0 mi Calm Calm - N/A   Mostly Cloudy
4:15 AM 66.2 °F - 66.2 °F 100% 29.78 in 10.0 mi Calm Calm - N/A   Mostly Cloudy
4:35 AM 66.2 °F - 66.2 °F 100% 29.78 in 10.0 mi Calm Calm - N/A   Mostly Cloudy
4:53 AM 66.0 °F - 66.0 °F 100% 29.76 in 10.0 mi Calm Calm - N/A   Mostly Cloudy
5:53 AM 66.0 °F - 66.0 °F 100% 29.78 in 10.0 mi Calm Calm - N/A   Mostly Cloudy
6:53 AM 75.0 °F - 68.9 °F 81% 29.80 in 10.0 mi Calm Calm - N/A   Overcast
7:53 AM 75.4 °F - 70.3 °F 84% 29.81 in 10.0 mi Calm Calm - N/A   Mostly Cloudy
8:53 AM 75.6 °F - 69.1 °F 80% 29.82 in 10.0 mi Calm Calm - N/A   Mostly Cloudy
9:53 AM 75.7 °F - 69.8 °F 82% 29.83 in 10.0 mi South 4.6 mph - N/A   Mostly Cloudy
10:53 AM 77.7 °F - 70.7 °F 79% 29.83 in 10.0 mi South 4.6 mph - N/A   Mostly Cloudy
11:53 AM 81.9 °F 85.8 °F 70.5 °F 68% 29.83 in 10.0 mi South 8.1 mph - N/A   Mostly Cloudy
12:53 PM 82.4 °F 86.7 °F 71.1 °F 68% 29.83 in 10.0 mi SSE 10.4 mph - N/A   Mostly Cloudy
1:53 PM 81.0 °F 83.8 °F 68.0 °F 65% 29.80 in 10.0 mi South 8.1 mph - N/A   Scattered Clouds
2:53 PM 82.9 °F 85.8 °F 68.0 °F 60% 29.77 in 10.0 mi South 8.1 mph - N/A   Scattered Clouds
3:53 PM 84.9 °F 87.6 °F 66.9 °F 55% 29.76 in 10.0 mi South 6.9 mph - N/A   Partly Cloudy
4:53 PM 84.9 °F 88.2 °F 68.0 °F 57% 29.75 in 10.0 mi South 8.1 mph - N/A   Partly Cloudy
5:53 PM 84.0 °F 87.8 °F 69.1 °F 61% 29.76 in 10.0 mi ESE 6.9 mph - N/A   Scattered Clouds
6:53 PM 81.0 °F 85.2 °F 72.0 °F 74% 29.76 in 10.0 mi ESE 11.5 mph - N/A   Scattered Clouds
7:53 PM 79.0 °F - 72.0 °F 79% 29.77 in 10.0 mi SSE 8.1 mph - N/A   Partly Cloudy
8:53 PM 78.1 °F - 73.0 °F 84% 29.81 in 10.0 mi South 6.9 mph - N/A   Scattered Clouds
9:53 PM 78.1 °F - 73.0 °F 84% 29.81 in 10.0 mi South 6.9 mph - N/A   Scattered Clouds
10:53 PM 77.0 °F - 71.6 °F 83% 29.82 in 10.0 mi West 4.6 mph - N/A   Scattered Clouds
11:53 PM 75.2 °F - 68.0 °F 78% 29.83 in 10.0 mi WSW 3.5 mph - N/A   Mostly Cloudy